contact:dominique.lefevre@mio.osupytheas.fr, maurice.libes@osupytheas.fr, didier.mallarino@osupytheas.fr
Project:EMSO http://www.emso-fr.org/EMSO-France
Depth: 2436.0 m
Title:EMSO Ligure Ouest : Data MII capteur AQUADOPP
Date,Latitude,Longitude,X_East,Y_North,Z_Up,Amplitude_X,Amplitude_Y,Amplitude_Z,Batterie,SoundSpeed,Heading,Pitch,Roll,Pressure,TIS,Speed,Direction
, degrees North, degrees East, m.s-1, m.s-1,m.s-1, 1, 1, 1, Volt, m.s-1, degree, degree, degree, dbar, degree_C, m.s-1, degree
2020-08-14T00:01:03,42.805,6.029,0.044,-0.01,-0.054,102.0,112.0,101.0,13.4,1505.3,326.0,-0.7,1.8,2470.436,13.32,0.045,102.8
2020-08-14T00:04:03,42.805,6.029,0.062,-0.002,0.023,103.0,113.0,100.0,13.4,1505.3,324.4,-0.7,1.8,2470.404,13.32,0.062,91.8
2020-08-14T00:07:03,42.805,6.029,0.062,-0.003,0.003,102.0,112.0,100.0,13.3,1505.3,325.1,-0.7,1.8,2470.441,13.32,0.062,92.8
2020-08-14T00:10:03,42.805,6.029,0.054,0.004,-0.013,102.0,116.0,100.0,13.4,1505.3,322.9,-0.7,1.8,2470.414,13.32,0.054,85.8
2020-08-14T00:13:03,42.805,6.029,0.061,-0.002,-0.011,102.0,114.0,100.0,13.4,1505.3,325.5,-0.7,1.8,2470.391,13.32,0.061,91.9
2020-08-14T00:16:03,42.805,6.029,0.043,-0.005,-0.033,103.0,112.0,100.0,13.4,1505.3,327.6,-0.7,1.8,2470.411,13.32,0.043,96.6
2020-08-14T00:19:03,42.805,6.029,0.041,-0.02,0.0,102.0,111.0,101.0,13.4,1505.3,327.5,-0.7,1.8,2470.423,13.32,0.045,116.0
2020-08-14T00:22:03,42.805,6.029,0.062,-0.009,-0.032,103.0,111.0,100.0,13.3,1505.3,324.7,-0.7,1.8,2470.44,13.32,0.062,98.3
2020-08-14T00:25:03,42.805,6.029,0.035,-0.005,-0.017,102.0,110.0,100.0,13.3,1505.3,325.3,-0.7,1.8,2470.406,13.32,0.035,98.1
2020-08-14T00:28:03,42.805,6.029,0.04,-0.009,-0.004,103.0,112.0,101.0,13.3,1505.3,324.5,-0.7,1.9,2470.38,13.32,0.041,102.7
2020-08-14T00:31:03,42.805,6.029,0.041,0.011,0.006,103.0,116.0,101.0,13.4,1505.3,324.4,-0.7,1.9,2470.445,13.32,0.042,75.0
2020-08-14T00:34:03,42.805,6.029,0.026,0.002,0.017,102.0,115.0,100.0,13.4,1505.3,327.6,-0.7,1.8,2470.407,13.32,0.026,85.6
2020-08-14T00:37:03,42.805,6.029,0.043,-0.006,-0.009,101.0,112.0,101.0,13.4,1505.3,323.4,-0.8,1.8,2470.43,13.32,0.043,97.9
2020-08-14T00:40:03,42.805,6.029,0.043,0.006,0.002,102.0,113.0,99.0,13.4,1505.3,327.0,-0.7,1.8,2470.452,13.32,0.043,82.1
2020-08-14T00:43:03,42.805,6.029,0.055,-0.017,-0.003,101.0,112.0,101.0,13.4,1505.3,324.8,-0.7,1.8,2470.399,13.32,0.057,107.2
2020-08-14T00:46:03,42.805,6.029,0.04,-0.009,-0.035,101.0,113.0,101.0,13.4,1505.3,327.8,-0.7,1.8,2470.398,13.32,0.041,102.7
2020-08-14T00:49:03,42.805,6.029,0.041,0.004,0.006,102.0,113.0,101.0,13.3,1505.3,326.4,-0.7,1.8,2470.39,13.32,0.041,84.4
2020-08-14T00:52:03,42.805,6.029,0.064,-0.013,-0.014,100.0,113.0,101.0,13.4,1505.3,324.1,-0.7,1.8,2470.423,13.32,0.065,101.5
2020-08-14T00:55:03,42.805,6.029,0.044,0.0,-0.027,102.0,113.0,99.0,13.4,1505.3,324.2,-0.7,1.8,2470.435,13.32,0.044,90.0
2020-08-14T00:58:03,42.805,6.029,0.059,0.005,-0.004,103.0,113.0,99.0,13.3,1505.3,327.3,-0.7,1.8,2470.452,13.32,0.059,85.2
2020-08-14T01:04:03,42.805,6.029,0.031,0.009,-0.018,103.0,113.0,101.0,13.3,1505.2,328.3,-0.7,1.8,2470.468,13.3,0.032,73.8
2020-08-14T01:07:03,42.805,6.029,0.037,-0.03,-0.026,102.0,110.0,100.0,13.4,1505.3,327.1,-0.7,1.9,2470.427,13.31,0.047,129.0
2020-08-14T01:10:03,42.805,6.029,0.028,-0.004,0.022,103.0,113.0,99.0,13.4,1505.3,324.8,-0.7,1.8,2470.418,13.31,0.028,98.1
2020-08-14T01:13:03,42.805,6.029,0.053,-0.007,-0.019,102.0,113.0,100.0,13.4,1505.3,325.1,-0.7,1.8,2470.467,13.32,0.053,97.5
2020-08-14T01:16:03,42.805,6.029,0.053,0.007,0.0,101.0,113.0,100.0,13.4,1505.3,326.9,-0.7,1.8,2470.475,13.32,0.053,82.5
2020-08-14T01:19:03,42.805,6.029,0.079,-0.001,0.014,101.0,105.0,100.0,13.3,1505.3,323.0,-0.7,1.8,2470.407,13.32,0.079,90.7
2020-08-14T01:22:03,42.805,6.029,0.051,-0.007,-0.035,101.0,108.0,100.0,13.3,1505.3,324.7,-0.7,1.8,2470.459,13.32,0.051,97.8
2020-08-14T01:25:03,42.805,6.029,0.059,-0.017,-0.026,102.0,109.0,100.0,13.4,1505.3,325.0,-0.7,1.8,2470.431,13.32,0.061,106.1
2020-08-14T01:28:03,42.805,6.029,0.064,-0.001,-0.009,101.0,111.0,99.0,13.4,1505.3,327.9,-0.7,1.9,2470.44,13.32,0.064,90.9
2020-08-14T01:31:03,42.805,6.029,0.04,-0.013,-0.029,102.0,110.0,101.0,13.4,1505.3,325.9,-0.7,1.8,2470.429,13.32,0.042,108.0
2020-08-14T01:34:03,42.805,6.029,0.039,0.008,-0.027,103.0,109.0,99.0,13.4,1505.3,323.3,-0.7,1.8,2470.402,13.32,0.039,78.4
2020-08-14T01:37:03,42.805,6.029,0.042,-0.001,-0.025,102.0,109.0,101.0,13.4,1505.3,325.3,-0.7,1.9,2470.424,13.32,0.042,91.4
2020-08-14T01:40:03,42.805,6.029,0.046,-0.009,-0.026,103.0,111.0,101.0,13.3,1505.3,326.3,-0.7,1.8,2470.414,13.32,0.046,101.1
2020-08-14T01:43:03,42.805,6.029,0.06,-0.003,-0.053,102.0,109.0,100.0,13.4,1505.3,326.4,-0.7,1.8,2470.429,13.32,0.06,92.9
2020-08-14T01:46:03,42.805,6.029,0.043,-0.003,-0.002,103.0,112.0,99.0,13.4,1505.3,323.2,-0.7,1.8,2470.415,13.32,0.043,94.0
2020-08-14T01:49:03,42.805,6.029,0.043,-0.006,-0.023,102.0,110.0,101.0,13.3,1505.3,327.9,-0.7,1.9,2470.481,13.32,0.043,97.9
2020-08-14T01:52:03,42.805,6.029,0.034,0.002,-0.012,102.0,110.0,99.0,13.3,1505.3,325.2,-0.7,1.9,2470.406,13.32,0.034,86.6
2020-08-14T01:55:03,42.805,6.029,0.059,-0.013,0.003,104.0,112.0,99.0,13.4,1505.3,328.0,-0.7,1.8,2470.397,13.32,0.06,102.4
2020-08-14T01:58:03,42.805,6.029,0.03,-0.02,0.002,102.0,109.0,99.0,13.4,1505.3,325.9,-0.7,1.8,2470.429,13.32,0.036,123.7
2020-08-14T02:04:03,42.805,6.029,0.032,0.015,0.009,102.0,112.0,100.0,13.4,1505.2,323.7,-0.7,1.8,2470.465,13.3,0.035,64.9
2020-08-14T02:07:03,42.805,6.029,0.038,-0.013,-0.005,102.0,111.0,100.0,13.3,1505.3,325.9,-0.7,1.8,2470.455,13.31,0.04,108.9
2020-08-14T02:10:03,42.805,6.029,0.045,-0.005,0.002,102.0,110.0,100.0,13.4,1505.3,328.0,-0.7,1.8,2470.451,13.31,0.045,96.3
2020-08-14T02:13:03,42.805,6.029,0.048,0.0,-0.009,102.0,112.0,101.0,13.4,1505.3,327.4,-0.7,1.8,2470.414,13.32,0.048,90.0
2020-08-14T02:16:03,42.805,6.029,0.045,-0.012,-0.028,102.0,107.0,100.0,13.4,1505.3,325.3,-0.7,1.8,2470.439,13.32,0.046,104.9
2020-08-14T02:19:03,42.805,6.029,0.074,-0.01,0.001,101.0,107.0,100.0,13.4,1505.3,326.5,-0.7,1.8,2470.441,13.32,0.074,97.7
2020-08-14T02:22:03,42.805,6.029,0.049,-0.016,-0.016,103.0,108.0,100.0,13.3,1505.3,326.0,-0.7,1.8,2470.45,13.32,0.051,108.1
2020-08-14T02:25:03,42.805,6.029,0.049,-0.015,-0.024,104.0,108.0,99.0,13.4,1505.3,326.9,-0.7,1.8,2470.468,13.32,0.051,107.0
2020-08-14T02:28:03,42.805,6.029,0.049,0.002,-0.03,102.0,107.0,100.0,13.4,1505.3,326.7,-0.7,1.8,2470.415,13.32,0.049,87.7
2020-08-14T02:31:03,42.805,6.029,0.031,-0.006,-0.019,102.0,104.0,100.0,13.3,1505.3,326.1,-0.7,1.8,2470.384,13.32,0.031,101.0
2020-08-14T02:34:03,42.805,6.029,0.066,-0.012,-0.001,101.0,105.0,103.0,13.4,1505.3,326.4,-0.7,1.8,2470.416,13.32,0.067,100.3
2020-08-14T02:37:03,42.805,6.029,0.021,-0.012,-0.035,103.0,107.0,101.0,13.4,1505.3,323.3,-0.7,1.8,2470.424,13.32,0.024,119.7
2020-08-14T02:40:03,42.805,6.029,0.028,-0.007,0.019,103.0,104.0,100.0,13.3,1505.3,323.4,-0.7,1.8,2470.372,13.32,0.028,104.0
2020-08-14T02:43:03,42.805,6.029,0.064,-0.009,-0.036,102.0,109.0,101.0,13.4,1505.3,324.4,-0.7,1.8,2470.43,13.32,0.064,98.0
2020-08-14T02:46:03,42.805,6.029,0.046,0.0,-0.028,100.0,109.0,100.0,13.4,1505.3,325.7,-0.7,1.8,2470.446,13.32,0.046,90.0
2020-08-14T02:49:03,42.805,6.029,0.056,-0.005,-0.023,103.0,106.0,100.0,13.4,1505.3,327.0,-0.8,1.8,2470.418,13.32,0.056,95.1
2020-08-14T02:52:03,42.805,6.029,0.039,-0.012,0.004,102.0,108.0,99.0,13.4,1505.3,327.1,-0.7,1.8,2470.455,13.32,0.04,107.1
2020-08-14T02:55:03,42.805,6.029,0.036,-0.013,-0.021,102.0,110.0,102.0,13.4,1505.3,324.3,-0.7,1.8,2470.435,13.32,0.038,109.9
2020-08-14T02:58:03,42.805,6.029,0.031,-0.003,-0.015,102.0,107.0,100.0,13.4,1505.3,323.0,-0.7,1.8,2470.397,13.32,0.031,95.5
2020-08-14T03:04:03,42.805,6.029,0.023,-0.016,-0.026,101.0,109.0,101.0,13.3,1505.2,323.6,-0.7,1.8,2470.426,13.3,0.028,124.8
2020-08-14T03:07:03,42.805,6.029,0.03,0.002,-0.024,102.0,112.0,100.0,13.4,1505.3,323.7,-0.7,1.8,2470.441,13.31,0.03,86.2
2020-08-14T03:10:03,42.805,6.029,0.04,0.002,0.0,104.0,110.0,100.0,13.4,1505.3,328.1,-0.7,1.8,2470.438,13.31,0.04,87.1
2020-08-14T03:13:03,42.805,6.029,0.023,0.0,-0.019,104.0,107.0,99.0,13.4,1505.3,325.6,-0.7,1.8,2470.382,13.32,0.023,90.0
2020-08-14T03:16:03,42.805,6.029,0.048,-0.008,0.024,104.0,110.0,100.0,13.4,1505.3,323.3,-0.7,1.8,2470.406,13.32,0.048,99.5
2020-08-14T03:19:03,42.805,6.029,0.04,-0.004,-0.019,102.0,113.0,100.0,13.4,1505.3,326.7,-0.7,1.8,2470.392,13.32,0.04,95.7
2020-08-14T03:22:03,42.805,6.029,0.026,0.008,-0.022,103.0,113.0,101.0,13.4,1505.3,323.9,-0.7,1.9,2470.435,13.32,0.027,72.9
2020-08-14T03:25:03,42.805,6.029,0.063,-0.01,-0.019,102.0,111.0,101.0,13.3,1505.3,325.6,-0.7,1.8,2470.402,13.32,0.063,99.0
2020-08-14T03:28:03,42.805,6.029,0.026,-0.002,-0.022,102.0,109.0,100.0,13.4,1505.3,324.2,-0.7,1.9,2470.408,13.32,0.026,94.4
2020-08-14T03:34:03,42.805,6.029,0.039,0.001,0.01,101.0,113.0,100.0,13.3,1505.2,323.7,-0.7,1.8,2470.464,13.3,0.039,88.5
2020-08-14T03:37:03,42.805,6.029,0.045,-0.008,0.001,102.0,112.0,100.0,13.4,1505.3,324.7,-0.7,1.8,2470.5,13.31,0.045,100.1
2020-08-14T03:40:03,42.805,6.029,0.002,0.007,-0.01,101.0,111.0,100.0,13.3,1505.3,324.6,-0.7,1.8,2470.425,13.31,0.007,15.9
2020-08-14T03:43:03,42.805,6.029,0.034,-0.003,-0.011,101.0,112.0,100.0,13.4,1505.3,323.9,-0.7,1.8,2470.43,13.32,0.034,95.0
2020-08-14T03:46:03,42.805,6.029,0.023,0.006,-0.012,102.0,110.0,100.0,13.4,1505.3,323.3,-0.7,1.8,2470.454,13.32,0.023,75.4
2020-08-14T03:49:03,42.805,6.029,0.045,0.0,-0.026,104.0,111.0,99.0,13.4,1505.3,325.5,-0.7,1.8,2470.404,13.32,0.045,90.0
2020-08-14T03:52:03,42.805,6.029,0.028,-0.003,-0.047,102.0,112.0,100.0,13.4,1505.3,323.1,-0.7,1.8,2470.447,13.32,0.028,96.1
2020-08-14T03:55:03,42.805,6.029,0.027,-0.012,-0.014,101.0,112.0,99.0,13.4,1505.3,325.6,-0.7,1.8,2470.405,13.32,0.029,114.0
2020-08-14T03:58:03,42.805,6.029,0.03,-0.027,-0.037,102.0,113.0,101.0,13.4,1505.3,326.2,-0.7,1.8,2470.431,13.32,0.04,132.0
2020-08-14T04:04:03,42.805,6.029,0.02,0.016,0.005,103.0,112.0,100.0,13.4,1505.2,324.5,-0.7,1.8,2470.44,13.3,0.025,51.3
2020-08-14T04:07:03,42.805,6.029,0.032,0.016,0.015,101.0,113.0,101.0,13.4,1505.3,323.7,-0.7,1.8,2470.404,13.31,0.035,63.4
2020-08-14T04:10:03,42.805,6.029,0.028,0.02,-0.009,102.0,112.0,101.0,13.4,1505.3,323.8,-0.7,1.8,2470.43,13.31,0.034,54.5
2020-08-14T04:13:03,42.805,6.029,0.031,-0.002,-0.027,102.0,112.0,100.0,13.4,1505.3,327.4,-0.7,1.8,2470.411,13.32,0.031,93.7
2020-08-14T04:16:03,42.805,6.029,0.036,0.017,0.009,101.0,111.0,102.0,13.4,1505.3,328.0,-0.7,1.8,2470.385,13.32,0.039,64.7
2020-08-14T04:19:03,42.805,6.029,0.023,0.026,0.002,103.0,113.0,100.0,13.4,1505.3,325.4,-0.7,1.8,2470.385,13.32,0.034,41.5
2020-08-14T04:22:03,42.805,6.029,0.025,0.009,-0.032,102.0,114.0,99.0,13.3,1505.3,326.3,-0.7,1.8,2470.434,13.32,0.026,70.2
2020-08-14T04:25:03,42.805,6.029,0.02,-0.005,-0.018,102.0,111.0,100.0,13.4,1505.3,323.0,-0.7,1.9,2470.413,13.32,0.02,104.0
2020-08-14T04:28:03,42.805,6.029,0.057,0.017,0.024,103.0,111.0,101.0,13.4,1505.3,324.7,-0.7,1.9,2470.409,13.32,0.059,73.4
2020-08-14T04:31:03,42.805,6.029,0.045,0.008,0.017,101.0,111.0,101.0,13.4,1505.3,324.8,-0.7,1.8,2470.408,13.32,0.045,79.9
2020-08-14T04:34:03,42.805,6.029,0.021,0.013,-0.01,103.0,114.0,101.0,13.4,1505.3,326.1,-0.7,1.9,2470.415,13.32,0.024,58.2
2020-08-14T04:37:03,42.805,6.029,0.038,0.025,0.009,102.0,111.0,100.0,13.4,1505.3,323.4,-0.7,1.8,2470.43,13.32,0.045,56.7
2020-08-14T04:40:03,42.805,6.029,0.039,-0.002,-0.023,102.0,114.0,100.0,13.4,1505.3,325.3,-0.7,1.8,2470.397,13.32,0.039,92.9
2020-08-14T04:43:03,42.805,6.029,0.036,0.009,0.002,103.0,111.0,100.0,13.4,1505.3,324.8,-0.7,1.8,2470.412,13.32,0.037,76.0
2020-08-14T04:46:03,42.805,6.029,0.029,-0.016,-0.045,103.0,111.0,101.0,13.4,1505.3,327.2,-0.7,1.8,2470.395,13.32,0.033,118.9
2020-08-14T04:49:03,42.805,6.029,0.025,0.013,0.002,102.0,113.0,99.0,13.4,1505.3,327.1,-0.7,1.8,2470.383,13.32,0.028,62.5
2020-08-14T04:52:03,42.805,6.029,0.029,0.001,-0.044,102.0,114.0,100.0,13.4,1505.3,326.8,-0.7,1.8,2470.415,13.32,0.029,88.0
2020-08-14T04:55:03,42.805,6.029,0.036,-0.006,-0.027,101.0,115.0,100.0,13.3,1505.3,324.7,-0.7,1.8,2470.416,13.32,0.036,99.5
2020-08-14T04:58:03,42.805,6.029,0.025,0.02,0.006,101.0,113.0,100.0,13.4,1505.3,327.0,-0.7,1.8,2470.432,13.32,0.032,51.3
2020-08-14T05:04:03,42.805,6.029,0.037,0.016,-0.035,102.0,113.0,100.0,13.4,1505.2,326.4,-0.7,1.8,2470.449,13.3,0.04,66.6
2020-08-14T05:07:03,42.805,6.029,0.039,-0.006,-0.015,104.0,116.0,99.0,13.4,1505.3,328.2,-0.7,1.8,2470.414,13.31,0.039,98.7
2020-08-14T05:10:03,42.805,6.029,0.034,0.017,0.0,104.0,113.0,101.0,13.4,1505.3,327.0,-0.7,1.8,2470.379,13.31,0.038,63.4
2020-08-14T05:13:03,42.805,6.029,0.052,0.014,0.0,103.0,118.0,101.0,13.4,1505.3,324.8,-0.7,1.9,2470.41,13.32,0.053,74.9
2020-08-14T05:16:03,42.805,6.029,0.051,-0.008,-0.023,101.0,114.0,100.0,13.3,1505.3,324.6,-0.7,1.9,2470.43,13.32,0.051,98.9
2020-08-14T05:19:03,42.805,6.029,0.027,0.004,-0.024,103.0,113.0,101.0,13.4,1505.3,323.2,-0.7,1.8,2470.423,13.32,0.027,81.6
2020-08-14T05:22:03,42.805,6.029,0.028,0.0,-0.001,102.0,112.0,100.0,13.3,1505.3,324.7,-0.7,1.8,2470.396,13.32,0.028,90.0
2020-08-14T05:25:03,42.805,6.029,0.036,0.016,0.016,102.0,109.0,101.0,13.4,1505.3,323.4,-0.7,1.8,2470.401,13.32,0.039,66.0
2020-08-14T05:28:03,42.805,6.029,0.029,-0.019,-0.025,103.0,110.0,100.0,13.4,1505.3,327.3,-0.7,1.8,2470.386,13.32,0.034,123.2
2020-08-14T05:31:03,42.805,6.029,0.021,-0.013,-0.019,103.0,116.0,100.0,13.4,1505.3,322.7,-0.7,1.8,2470.419,13.32,0.024,121.8
2020-08-14T05:34:03,42.805,6.029,0.059,0.0,0.003,103.0,116.0,100.0,13.3,1505.3,327.9,-0.7,1.8,2470.407,13.32,0.058,90.0
2020-08-14T05:37:03,42.805,6.029,0.047,0.0,-0.01,103.0,115.0,99.0,13.4,1505.3,328.1,-0.7,1.8,2470.401,13.32,0.047,90.0
2020-08-14T05:40:03,42.805,6.029,0.034,-0.006,-0.029,101.0,114.0,101.0,13.4,1505.3,327.7,-0.7,1.8,2470.382,13.32,0.034,100.0
2020-08-14T05:43:03,42.805,6.029,0.045,0.015,0.0,102.0,113.0,100.0,13.4,1505.3,326.4,-0.7,1.8,2470.348,13.32,0.047,71.6
2020-08-14T05:46:03,42.805,6.029,0.034,0.006,-0.03,103.0,111.0,100.0,13.3,1505.3,325.0,-0.7,1.9,2470.385,13.32,0.034,80.0
2020-08-14T05:49:03,42.805,6.029,0.027,-0.006,-0.003,102.0,114.0,100.0,13.3,1505.3,324.4,-0.7,1.8,2470.347,13.32,0.027,102.5
2020-08-14T05:52:03,42.805,6.029,0.042,0.001,-0.034,103.0,113.0,101.0,13.4,1505.3,325.8,-0.7,1.8,2470.368,13.32,0.042,88.6
2020-08-14T05:55:03,42.805,6.029,0.036,0.001,-0.017,102.0,111.0,100.0,13.3,1505.3,325.7,-0.7,1.8,2470.422,13.32,0.036,88.4
2020-08-14T05:58:03,42.805,6.029,0.021,0.0,-0.031,102.0,118.0,100.0,13.3,1505.3,328.4,-0.7,1.8,2470.367,13.32,0.021,90.0
2020-08-14T06:04:03,42.805,6.029,0.041,0.016,0.026,103.0,115.0,100.0,13.4,1505.2,325.4,-0.7,1.8,2470.378,13.3,0.044,68.7
2020-08-14T06:07:03,42.805,6.029,0.031,0.004,-0.028,104.0,114.0,100.0,13.4,1505.3,326.8,-0.7,1.8,2470.364,13.31,0.031,82.7
2020-08-14T06:10:03,42.805,6.029,0.038,0.014,0.004,103.0,111.0,100.0,13.3,1505.3,328.2,-0.7,1.8,2470.404,13.31,0.04,69.8
2020-08-14T06:13:03,42.805,6.029,0.022,0.007,-0.008,102.0,114.0,99.0,13.4,1505.3,327.9,-0.7,1.8,2470.387,13.32,0.023,72.4
2020-08-14T06:16:03,42.805,6.029,0.008,0.001,-0.048,103.0,115.0,101.0,13.3,1505.3,327.4,-0.7,1.8,2470.377,13.32,0.008,82.9
2020-08-14T06:19:03,42.805,6.029,0.011,0.005,-0.044,102.0,115.0,100.0,13.3,1505.3,327.6,-0.7,1.8,2470.39,13.32,0.012,65.6
2020-08-14T06:22:03,42.805,6.029,0.017,0.029,-0.044,102.0,114.0,101.0,13.4,1505.3,324.8,-0.7,1.8,2470.421,13.32,0.033,30.4
2020-08-14T06:25:03,42.805,6.029,0.023,0.008,-0.023,103.0,114.0,100.0,13.3,1505.3,326.5,-0.7,1.9,2470.387,13.32,0.024,70.8
2020-08-14T06:28:03,42.805,6.029,0.044,-0.017,0.0,103.0,113.0,100.0,13.4,1505.3,324.0,-0.7,1.8,2470.386,13.32,0.047,111.1
2020-08-14T06:31:03,42.805,6.029,0.031,0.009,-0.02,103.0,112.0,100.0,13.3,1505.3,326.3,-0.7,1.8,2470.366,13.32,0.032,73.8
2020-08-14T06:34:03,42.805,6.029,0.017,0.0,-0.017,102.0,115.0,100.0,13.4,1505.3,324.8,-0.7,1.8,2470.368,13.32,0.017,90.0
2020-08-14T06:37:03,42.805,6.029,0.03,-0.006,-0.029,104.0,115.0,99.0,13.4,1505.3,326.4,-0.7,1.8,2470.357,13.32,0.03,101.3
2020-08-14T06:40:03,42.805,6.029,0.02,0.008,-0.005,102.0,114.0,100.0,13.4,1505.3,324.9,-0.7,1.8,2470.341,13.32,0.021,68.2
2020-08-14T06:43:03,42.805,6.029,0.022,-0.007,-0.001,102.0,115.0,100.0,13.3,1505.3,327.1,-0.7,1.8,2470.413,13.32,0.023,107.6
2020-08-14T06:46:03,42.805,6.029,0.027,0.001,-0.029,103.0,116.0,100.0,13.3,1505.3,324.5,-0.7,1.8,2470.392,13.32,0.027,87.9
2020-08-14T06:49:03,42.805,6.029,0.018,0.016,-0.022,102.0,113.0,100.0,13.4,1505.3,327.1,-0.7,1.8,2470.348,13.32,0.024,48.4
2020-08-14T06:52:03,42.805,6.029,0.015,0.027,-0.021,102.0,113.0,99.0,13.4,1505.3,327.9,-0.7,1.8,2470.38,13.32,0.03,29.1
2020-08-14T06:55:03,42.805,6.029,0.054,0.013,-0.013,102.0,113.0,100.0,13.4,1505.3,326.3,-0.7,1.8,2470.354,13.32,0.055,76.5
2020-08-14T06:58:03,42.805,6.029,0.01,0.019,-0.034,103.0,114.0,100.0,13.4,1505.3,326.1,-0.7,1.8,2470.359,13.32,0.021,27.8
2020-08-14T07:04:03,42.805,6.029,0.033,0.014,-0.043,102.0,115.0,100.0,13.3,1505.2,325.9,-0.7,1.8,2470.399,13.3,0.035,67.0
2020-08-14T07:07:03,42.805,6.029,0.022,0.002,-0.005,103.0,115.0,100.0,13.3,1505.3,323.8,-0.7,1.8,2470.378,13.31,0.022,84.8
2020-08-14T07:10:03,42.805,6.029,0.009,0.007,-0.014,102.0,115.0,101.0,13.4,1505.3,328.1,-0.7,1.8,2470.354,13.31,0.011,52.1
2020-08-14T07:13:03,42.805,6.029,0.031,0.006,-0.02,102.0,114.0,100.0,13.3,1505.3,326.4,-0.7,1.8,2470.369,13.32,0.031,79.0
2020-08-14T07:16:03,42.805,6.029,0.022,0.023,-0.014,101.0,114.0,100.0,13.3,1505.3,327.8,-0.7,1.8,2470.413,13.32,0.031,43.7
2020-08-14T07:19:03,42.805,6.029,0.05,0.005,-0.014,103.0,115.0,100.0,13.4,1505.3,327.0,-0.7,1.8,2470.346,13.32,0.05,84.3
2020-08-14T07:22:03,42.805,6.029,0.041,0.012,-0.006,100.0,116.0,101.0,13.4,1505.3,325.5,-0.7,1.8,2470.388,13.32,0.042,73.7
2020-08-14T07:25:03,42.805,6.029,0.023,0.023,-0.001,101.0,115.0,101.0,13.4,1505.3,325.9,-0.7,1.8,2470.364,13.32,0.032,45.0
2020-08-14T07:28:03,42.805,6.029,0.034,0.012,0.017,102.0,114.0,100.0,13.3,1505.3,325.4,-0.7,1.8,2470.361,13.32,0.036,70.6
2020-08-14T07:31:03,42.805,6.029,0.017,0.014,-0.005,101.0,115.0,100.0,13.4,1505.3,326.7,-0.7,1.8,2470.345,13.32,0.022,50.5
2020-08-14T07:34:03,42.805,6.029,0.049,0.018,-0.001,102.0,115.0,99.0,13.4,1505.3,324.2,-0.7,1.8,2470.397,13.32,0.052,69.8
2020-08-14T07:37:03,42.805,6.029,0.038,0.016,-0.001,102.0,117.0,100.0,13.4,1505.3,324.6,-0.7,1.8,2470.33,13.32,0.041,67.2
2020-08-14T07:40:03,42.805,6.029,0.023,0.022,0.011,101.0,116.0,100.0,13.3,1505.3,324.7,-0.7,1.8,2470.337,13.32,0.031,46.3
2020-08-14T07:43:03,42.805,6.029,0.061,0.019,0.005,101.0,117.0,101.0,13.4,1505.3,326.4,-0.7,1.8,2470.352,13.32,0.063,72.7
2020-08-14T07:46:03,42.805,6.029,0.038,0.0,-0.019,101.0,116.0,100.0,13.4,1505.3,324.7,-0.7,1.8,2470.331,13.32,0.038,90.0
2020-08-14T07:49:03,42.805,6.029,0.014,0.023,-0.036,101.0,118.0,102.0,13.4,1505.3,324.6,-0.7,1.8,2470.341,13.32,0.026,31.3
2020-08-14T07:52:03,42.805,6.029,0.02,-0.013,-0.032,103.0,117.0,100.0,13.4,1505.3,326.4,-0.7,1.8,2470.337,13.32,0.023,123.0
2020-08-14T07:55:03,42.805,6.029,0.029,0.018,-0.004,102.0,115.0,102.0,13.4,1505.3,327.4,-0.7,1.8,2470.338,13.32,0.034,58.2
2020-08-14T07:58:03,42.805,6.029,0.027,0.0,-0.031,102.0,118.0,101.0,13.4,1505.3,325.9,-0.6,1.8,2470.34,13.32,0.026,90.0
2020-08-14T08:04:03,42.805,6.029,0.003,0.001,-0.027,102.0,118.0,101.0,13.3,1505.2,324.3,-0.7,1.8,2470.378,13.3,0.003,71.6
2020-08-14T08:07:03,42.805,6.029,0.022,0.023,-0.001,102.0,118.0,100.0,13.4,1505.3,324.6,-0.7,1.8,2470.366,13.31,0.031,43.7
2020-08-14T08:10:03,42.805,6.029,0.026,0.006,0.014,102.0,119.0,102.0,13.3,1505.3,323.5,-0.7,1.8,2470.353,13.31,0.026,77.0
2020-08-14T08:13:03,42.805,6.029,0.028,0.005,0.025,102.0,116.0,101.0,13.4,1505.3,328.1,-0.7,1.8,2470.347,13.32,0.028,79.9
2020-08-14T08:16:03,42.805,6.029,0.039,0.013,0.014,104.0,117.0,101.0,13.4,1505.3,326.5,-0.7,1.8,2470.349,13.32,0.041,71.6
2020-08-14T08:19:03,42.805,6.029,0.024,0.03,0.023,103.0,119.0,101.0,13.4,1505.3,324.3,-0.7,1.9,2470.336,13.32,0.038,38.7
2020-08-14T08:22:03,42.805,6.029,0.01,0.013,-0.01,103.0,121.0,100.0,13.3,1505.3,324.2,-0.7,1.9,2470.328,13.32,0.016,37.6
2020-08-14T08:25:03,42.805,6.029,0.018,0.012,-0.011,102.0,117.0,101.0,13.4,1505.3,323.2,-0.7,1.8,2470.321,13.32,0.021,56.3
2020-08-14T08:28:03,42.805,6.029,0.029,-0.008,-0.05,102.0,119.0,102.0,13.3,1505.3,327.9,-0.7,1.8,2470.347,13.32,0.03,105.4
2020-08-14T08:31:03,42.805,6.029,0.043,0.003,0.006,103.0,120.0,101.0,13.3,1505.3,325.9,-0.7,1.8,2470.351,13.32,0.043,86.0
2020-08-14T08:34:03,42.805,6.029,0.027,0.017,-0.007,104.0,119.0,100.0,13.3,1505.3,326.7,-0.7,1.8,2470.347,13.32,0.031,57.8
2020-08-14T08:37:03,42.805,6.029,-0.002,0.015,-0.015,103.0,118.0,100.0,13.3,1505.3,326.2,-0.7,1.9,2470.313,13.32,0.015,352.4
2020-08-14T08:40:03,42.805,6.029,0.017,0.004,-0.022,103.0,120.0,100.0,13.4,1505.3,327.6,-0.7,1.8,2470.334,13.32,0.017,76.8
2020-08-14T08:43:03,42.805,6.029,-0.003,0.011,-0.038,102.0,121.0,100.0,13.4,1505.3,325.0,-0.7,1.8,2470.311,13.32,0.011,344.7
2020-08-14T08:46:03,42.805,6.029,0.036,0.015,-0.033,103.0,123.0,100.0,13.3,1505.3,323.5,-0.7,1.8,2470.314,13.32,0.039,67.4
2020-08-14T08:49:03,42.805,6.029,0.05,0.01,0.018,103.0,118.0,101.0,13.4,1505.3,326.4,-0.7,1.9,2470.372,13.32,0.05,78.7
2020-08-14T08:52:03,42.805,6.029,0.051,0.026,-0.005,103.0,116.0,100.0,13.3,1505.3,326.3,-0.7,1.8,2470.306,13.32,0.057,63.0
2020-08-14T08:55:03,42.805,6.029,0.05,0.005,0.022,103.0,117.0,100.0,13.4,1505.3,326.1,-0.7,1.8,2470.342,13.32,0.05,84.3
2020-08-14T08:58:03,42.805,6.029,0.036,-0.002,0.001,103.0,117.0,99.0,13.3,1505.3,327.2,-0.7,1.8,2470.278,13.32,0.036,93.2
2020-08-14T09:04:03,42.805,6.029,0.037,0.014,-0.024,103.0,116.0,101.0,13.3,1505.2,323.7,-0.8,1.8,2470.374,13.3,0.039,69.3
2020-08-14T09:07:03,42.805,6.029,0.02,0.014,-0.018,103.0,122.0,99.0,13.4,1505.3,324.1,-0.8,1.8,2470.34,13.31,0.024,55.0
2020-08-14T09:10:03,42.805,6.029,0.018,0.009,-0.033,103.0,120.0,99.0,13.3,1505.3,325.5,-0.7,1.8,2470.357,13.31,0.02,63.4
2020-08-14T09:13:03,42.805,6.029,0.046,0.015,-0.007,102.0,119.0,101.0,13.4,1505.3,324.5,-0.7,1.8,2470.318,13.32,0.048,71.9
2020-08-14T09:16:03,42.805,6.029,0.009,0.021,-0.011,102.0,122.0,101.0,13.3,1505.3,324.0,-0.7,1.8,2470.363,13.32,0.022,23.2
2020-08-14T09:19:03,42.805,6.029,0.015,-0.003,-0.047,102.0,119.0,101.0,13.4,1505.3,324.5,-0.7,1.9,2470.313,13.32,0.015,101.3
2020-08-14T09:22:03,42.805,6.029,0.038,0.027,-0.013,103.0,118.0,101.0,13.4,1505.3,326.5,-0.7,1.8,2470.341,13.32,0.046,54.6
2020-08-14T09:25:03,42.805,6.029,0.019,0.018,0.009,103.0,121.0,100.0,13.4,1505.3,327.9,-0.7,1.8,2470.319,13.32,0.026,46.5
2020-08-14T09:28:03,42.805,6.029,0.027,0.036,0.001,102.0,120.0,100.0,13.4,1505.3,326.2,-0.7,1.8,2470.303,13.32,0.045,36.9
2020-08-14T09:31:03,42.805,6.029,0.041,0.014,-0.016,101.0,119.0,101.0,13.4,1505.3,326.5,-0.7,1.8,2470.363,13.32,0.043,71.1
2020-08-14T09:34:03,42.805,6.029,0.015,0.014,-0.032,103.0,123.0,101.0,13.4,1505.3,323.4,-0.7,1.8,2470.33,13.32,0.02,47.0
2020-08-14T09:37:03,42.805,6.029,-0.005,0.005,-0.034,103.0,119.0,101.0,13.3,1505.3,324.4,-0.7,1.8,2470.33,13.32,0.007,315.0
2020-08-14T09:40:03,42.805,6.029,0.033,0.016,-0.032,103.0,118.0,101.0,13.4,1505.3,325.1,-0.7,1.8,2470.295,13.32,0.036,64.1
2020-08-14T09:43:03,42.805,6.029,-0.002,0.006,-0.059,103.0,120.0,101.0,13.4,1505.3,325.7,-0.7,1.8,2470.316,13.32,0.006,341.6
2020-08-14T09:46:03,42.805,6.029,0.022,0.015,-0.031,102.0,121.0,101.0,13.4,1505.3,327.8,-0.7,1.8,2470.3,13.32,0.026,55.7
2020-08-14T09:49:03,42.805,6.029,0.01,0.004,-0.034,102.0,120.0,101.0,13.3,1505.3,323.0,-0.7,1.8,2470.319,13.32,0.01,68.2
2020-08-14T09:52:03,42.805,6.029,0.024,0.016,-0.013,102.0,118.0,101.0,13.4,1505.3,325.4,-0.7,1.8,2470.312,13.32,0.028,56.3
2020-08-14T09:55:03,42.805,6.029,0.009,0.032,-0.011,102.0,122.0,100.0,13.4,1505.3,327.9,-0.7,1.8,2470.296,13.32,0.033,15.7
2020-08-14T09:58:03,42.805,6.029,0.0,0.008,-0.013,103.0,123.0,99.0,13.4,1505.3,323.4,-0.7,1.8,2470.312,13.32,0.008,0.0
2020-08-14T10:04:03,42.805,6.029,0.034,0.006,-0.02,100.0,122.0,101.0,13.3,1505.2,325.3,-0.8,1.8,2470.366,13.3,0.034,80.0